Melbourne Airport, Australia

1:43 AM AEDT on December 13, 2017 (GMT +1100)
Melbourne International

Weather History for YMML - May, 2013

Change the Weather History Date:

Wednesday, May 1, 2013

  Actual Average Record
Temperature  
Mean Temperature 52 °F -  
Max Temperature 60 °F 59 °F 73 °F (1997)
Min Temperature 44 °F 45 °F 40 °F (2014)
Degree Days  
Heating Degree Days 13    
Growing Degree Days 2 (Base 50)    
Moisture  
Dew Point 43 °F    
Average Humidity 72    
Maximum Humidity 93    
Minimum Humidity 48    
Precipitation  
Precipitation 0.12 in 0.06 in - ()
Sea Level Pressure  
Sea Level Pressure 30.19 in    
Wind  
Wind Speed 10 mph ()    
Max Wind Speed 20 mph    
Max Gust Speed 34 mph    
Visibility 8.1 miles    
Events Rain    
Averages and records for this station are not official NWS values.
T = Trace of Precipitation, MM = Missing Value Source: Averaged Metar Reports

Daily Weather History Graph

Daily Weather History Graph

Search for Another Location

Airport or City:

Trip Planner

Search our weather history database for the weather conditions in past years. The results will help you decide how hot, cold, wet, or windy it might be!

Date:

Astronomy

May. 01, 2013 Rise Set
Actual Time 7:01 AM AEST 5:33 PM AEST
Civil Twilight 6:33 AM AEST 6:01 PM AEST
Nautical Twilight 6:02 AM AEST 6:32 PM AEST
Astronomical Twilight 5:32 AM AEST 7:02 PM AEST
Moon 10:54 PM AEST (5/1) 12:11 PM AEST (5/1)
Length of Visible Light 11h 27m
Length of Day
10h 32m
Waning Gibbous, 66% of the Moon is Illuminated
May 1
Waning Gibbous
May 2
Last Quarter
May 10
New
May 18
First Quarter
May 25
Full

Hourly Weather History & Observations

Time (AEST) Temp. Windchill Dew Point Humidity Pressure Visibility Wind Dir Wind Speed Gust Speed Precip Events Conditions
12:00 AM 48 °F - 38 °F 60% 30.19 in 19 mi North 11.5 mph - -   Partly Cloudy
12:00 AM 48.2 °F - 39.2 °F 71% 30.18 in - North 11.5 mph - N/A   Clear
1:00 AM 47 °F - 39 °F 66% 30.17 in - North 11.5 mph - -  
1:00 AM 48.2 °F - 39.2 °F 71% 30.15 in - North 11.5 mph - N/A   Clear
1:30 AM 50.0 °F - 39.2 °F 66% 30.15 in - North 12.7 mph - N/A   Clear
2:00 AM 50.0 °F - 39.2 °F 66% 30.15 in - North 10.4 mph - N/A   Clear
2:30 AM 50.0 °F - 41.0 °F 71% 30.15 in - North 6.9 mph - N/A   Clear
3:00 AM 49 °F - 41 °F 67% 30.16 in 19 mi NNW 5.8 mph - -   Partly Cloudy
3:00 AM 50.0 °F - 41.0 °F 71% 30.15 in - NNW 5.8 mph - N/A   Clear
3:30 AM 51.8 °F - 42.8 °F 71% 30.15 in - NW 9.2 mph - N/A   Clear
4:00 AM 52 °F - 42 °F 60% 30.14 in - NNW 5.8 mph - -  
4:00 AM 51.8 °F - 42.8 °F 71% 30.12 in - NNW 5.8 mph - N/A   Clear
4:30 AM 50.0 °F - 42.8 °F 76% 30.15 in - North 8.1 mph - N/A   Clear
5:00 AM 51.8 °F - 42.8 °F 71% 30.15 in - NW 4.6 mph - N/A   Clear
5:30 AM 48.2 °F - 42.8 °F 82% 30.12 in - North 6.9 mph - N/A   Clear
6:00 AM 49 °F - 43 °F 71% 30.13 in 19 mi North 6.9 mph - -   Partly Cloudy
6:00 AM 48.2 °F - 42.8 °F 82% 30.12 in - North 6.9 mph - N/A   Clear
6:30 AM 48.2 °F - 42.8 °F 82% 30.12 in - NW 5.8 mph - N/A   Clear
7:00 AM 49 °F - 41 °F 67% 30.14 in - North 10.4 mph - -  
7:00 AM 50.0 °F - 41.0 °F 71% 30.12 in - North 10.4 mph - N/A   Clear
7:30 AM 51.8 °F - 41.0 °F 67% 30.12 in 6.2 mi North 10.4 mph - N/A   Mostly Cloudy
8:00 AM 50.0 °F - 41.0 °F 71% 30.12 in - North 11.5 mph - N/A   Clear
8:30 AM 51.8 °F - 42.8 °F 71% 30.12 in - NNW 9.2 mph - N/A   Clear
9:00 AM 54 °F - 42 °F 53% 30.17 in 19 mi NW 9.2 mph - -   Partly Cloudy
9:00 AM 53.6 °F - 41.0 °F 62% 30.15 in - NW 9.2 mph - N/A   Clear
9:30 AM 55.4 °F - 42.8 °F 63% 30.15 in - West 8.1 mph - N/A   Clear
10:00 AM 56 °F - 44 °F 53% 30.18 in - West 11.5 mph - -  
10:00 AM 55.4 °F - 44.6 °F 67% 30.18 in - West 11.5 mph - N/A   Clear
10:30 AM 57.2 °F - 44.6 °F 63% 30.15 in 6.2 mi West 12.7 mph - N/A   Overcast
11:00 AM 57.2 °F - 44.6 °F 63% 30.18 in 5.6 mi WSW 17.3 mph - N/A   Mostly Cloudy
11:03 AM 55.4 °F - 44.6 °F 67% 30.18 in 3.1 mi WSW 19.6 mph 34.5 mph N/A Rain Light Rain
11:30 AM 53.6 °F - 46.4 °F 77% 30.18 in 6.2 mi SW 16.1 mph - N/A   Overcast
12:00 PM 54 °F - 48 °F 72% 30.20 in 12 mi West 11.5 mph - -   Mostly Cloudy
12:00 PM 53.6 °F - 48.2 °F 82% 30.18 in 6.2 mi West 11.5 mph - N/A   Mostly Cloudy
12:30 PM 55.4 °F - 42.8 °F 63% 30.15 in 6.2 mi WSW 15.0 mph - N/A   Mostly Cloudy
1:00 PM 58 °F - 44 °F 50% 30.17 in - WSW 11.5 mph - -  
1:00 PM 59.0 °F - 44.6 °F 59% 30.15 in 6.2 mi WSW 11.5 mph - N/A   Partly Cloudy
1:30 PM 60.8 °F - 42.8 °F 52% 30.15 in 6.2 mi WSW 15.0 mph - N/A   Mostly Cloudy
2:00 PM 60.8 °F - 41.0 °F 48% 30.12 in 6.2 mi SW 18.4 mph - N/A   Mostly Cloudy
2:30 PM 59.0 °F - 42.8 °F 55% 30.15 in 6.2 mi SSW 17.3 mph - N/A Rain Light Rain Showers
3:00 PM 56 °F - 47 °F 62% 30.17 in 9 mi SSW 18.4 mph - - Rain Light Rain Showers
3:00 PM 57.2 °F - 46.4 °F 67% 30.15 in 6.2 mi SSW 18.4 mph - N/A   Scattered Clouds
3:30 PM 57.2 °F - 44.6 °F 63% 30.18 in 6.2 mi SSW 15.0 mph - N/A   Partly Cloudy
4:00 PM 56 °F - 44 °F 55% 30.19 in - SSW 11.5 mph - -  
4:00 PM 57.2 °F - 44.6 °F 63% 30.18 in 3.7 mi SSW 11.5 mph - N/A   Mostly Cloudy
4:30 PM 51.8 °F - 48.2 °F 88% 30.18 in 3.1 mi SW 16.1 mph - N/A Rain Light Rain Showers
4:45 PM 51.8 °F - 48.2 °F 88% 30.21 in 6.2 mi SW 9.2 mph - N/A   Mostly Cloudy
4:54 PM 51.8 °F - 48.2 °F 88% 30.21 in 3.7 mi SW 10.4 mph - N/A Rain Light Rain Showers
5:00 PM 51.8 °F - 48.2 °F 88% 30.21 in 5.0 mi SW 10.4 mph - N/A   Mostly Cloudy
5:30 PM 51.8 °F - 48.2 °F 88% 30.21 in 6.2 mi WSW 9.2 mph - N/A   Mostly Cloudy
6:00 PM 50 °F - 47 °F 85% 30.24 in 19 mi West 10.4 mph - -   Partly Cloudy
6:00 PM 50.0 °F - 46.4 °F 87% 30.21 in 6.2 mi West 10.4 mph - N/A   Scattered Clouds
6:30 PM 50.0 °F - 46.4 °F 87% 30.24 in 6.2 mi West 10.4 mph - N/A   Mostly Cloudy
7:00 PM 50 °F - 45 °F 78% 30.26 in - WSW 10.4 mph - -  
7:00 PM 50.0 °F - 44.6 °F 82% 30.24 in 6.2 mi WSW 10.4 mph - N/A   Scattered Clouds
7:30 PM 50.0 °F - 44.6 °F 82% 30.27 in 6.2 mi WSW 9.2 mph - N/A   Scattered Clouds
8:00 PM 48.2 °F - 42.8 °F 82% 30.27 in 6.2 mi WSW 9.2 mph - N/A   Scattered Clouds
8:30 PM 46.4 °F 42.4 °F 42.8 °F 87% 30.27 in 6.2 mi WSW 8.1 mph - N/A   Partly Cloudy
9:00 PM 45 °F - 42 °F 85% 30.30 in 19 mi WSW 8.1 mph - -   Scattered Clouds
9:00 PM 44.6 °F 40.2 °F 42.8 °F 93% 30.27 in 6.2 mi WSW 8.1 mph - N/A   Partly Cloudy
9:30 PM 48.2 °F - 42.8 °F 82% 30.30 in 6.2 mi SSW 9.2 mph - N/A   Light Drizzle
10:00 PM 48 °F - 43 °F 77% 30.31 in - SW 5.8 mph - -  
10:00 PM 48.2 °F - 42.8 °F 82% 30.30 in 6.2 mi SW 5.8 mph - N/A   Mostly Cloudy
10:30 PM 46.4 °F 42.9 °F 42.8 °F 87% 30.30 in 6.2 mi WSW 6.9 mph - N/A   Light Drizzle
11:00 PM 46.4 °F 41.9 °F 42.8 °F 87% 30.30 in 6.2 mi WSW 9.2 mph - N/A   Mostly Cloudy
11:30 PM 48.2 °F - 42.8 °F 82% 30.30 in 6.2 mi WSW 6.9 mph - N/A   Light Drizzle